Lær å fly hos oss!

Oslo Flyveklubb har i mange år utdannet flygere til privatflygersetifikat PPL(A). Skolen har godkjenning for å drive utdanning til teoriundervisning til PPL(A), privatflygersertifikat PPL (A) og mørkeflyging.

Gi bort en flytur i gave

På en introduksjonstur vil kandidaten være med på forberedelser til, og gjennomføring av en flytur på en times varighet med en av våre instruktører.

Hvor vi holder til?

Flyplassen ligger i Lillestrøm 10 minutter med tog fra Oslo. Følg storgata fra Lillestrøms sentrum så vill man se plassen på venstre side.
Metar/TAF Gardermoen:

ENGM 182350Z 19015KT 9999 OVC010 16/14 Q0999

TAF ENGM 181700Z 1818/1918 19012KT 9999 FEW020 BECMG 1819/1821 BKN012 TEMPO 1821/1902 2500 -RADZ BR OVC004 BECMG 1902/1904 SCT020 PROB30 TEMPO 1910/1913 BKN012 FEW025CB TEMPO 1910/1918 20015G25KT